Theta_e
310 310 309 309 310 311 311 312 313 313 314 314 313 312 312 310 311 317 320 325 325 323 328 333 335 339 338 339 342 337 334 337 339 339 338 337 336 335 336 339 339 339 338 338 339 340 341 339 337 338 337 339 337 335 337 336 334 338 340 340 341 341 341 340 341 341 341 341 341 341 340 338 338 337 337 337 336 336 336 335 335 335 335 335 335 335
310 310 310 309 311 311 311 313 314 314 314 314 313 311 311 310 315 320 321 325 327 327 332 336 335 336 336 339 341 338 337 340 339 339 338 338 337 336 338 338 337 335 333 333 334 335 336 337 337 337 336 337 337 336 337 337 338 340 339 340 341 341 341 341 341 341 341 341 340 340 338 337 337 336 336 335 335 334 334 334 334 334 333 333 334 334
310 310 310 310 311 311 311 313 313 314 313 313 313 310 310 313 319 322 323 323 324 327 332 335 335 337 338 339 340 340 340 340 339 339 338 339 338 337 336 335 334 332 331 331 332 331 332 333 335 335 336 336 336 337 338 338 338 339 339 340 341 341 341 340 339 339 339 339 339 338 337 336 336 335 335 334 333 333 333 332 332 332 332 332 332 333
309 310 311 310 310 311 312 312 313 313 313 313 313 310 310 315 317 316 321 326 324 327 333 335 337 339 339 339 340 339 339 339 340 339 338 338 338 337 335 334 334 332 332 331 331 331 331 331 332 333 333 333 335 337 337 337 338 338 338 338 339 339 339 338 338 338 338 338 337 337 336 335 334 333 333 333 332 332 331 331 331 331 331 331 331 331
309 310 310 309 309 310 310 311 312 312 312 313 314 311 311 314 315 317 322 326 326 329 334 333 332 335 339 340 340 339 338 339 339 339 338 337 336 336 335 334 334 333 332 330 329 331 331 330 331 332 332 332 334 336 336 336 336 337 337 337 337 337 337 337 337 337 336 336 336 335 334 333 333 332 331 331 331 330 330 329 329 329 329 329 329 329
309 309 309 308 308 309 309 310 312 312 311 311 314 313 312 315 319 323 324 323 323 327 333 327 321 328 338 339 339 339 338 339 339 339 338 336 336 335 335 333 332 332 331 330 330 330 331 330 330 332 332 332 333 334 334 334 335 336 336 336 336 335 335 336 336 336 335 335 335 335 334 334 333 332 331 330 330 329 329 327 327 326 325 325 325 325
309 308 308 308 308 308 309 309 311 313 311 311 312 312 315 320 321 322 321 319 318 321 330 325 318 328 338 338 339 339 339 339 338 338 338 336 336 336 335 333 332 332 331 331 331 331 331 330 330 330 331 331 331 332 332 332 333 334 334 334 334 334 334 335 335 335 335 335 335 334 334 333 332 331 330 329 328 328 327 326 325 323 321 320 320 321
310 309 307 308 308 308 308 309 310 313 311 311 312 312 316 320 321 320 319 316 315 319 329 327 321 327 333 335 339 339 338 340 340 339 338 336 336 337 335 333 332 332 330 330 331 331 331 330 329 329 329 329 329 329 329 329 330 331 332 332 332 332 332 333 333 334 334 334 333 333 332 331 330 329 328 327 326 325 325 324 324 322 320 319 319 319
310 309 307 308 308 308 308 309 310 311 312 312 312 312 314 318 320 319 316 315 318 321 322 323 320 320 323 331 338 338 339 340 340 339 338 336 335 336 335 333 333 331 330 330 330 330 330 330 329 329 328 328 327 327 327 327 327 327 328 329 329 329 329 329 330 331 331 331 331 331 330 329 328 327 326 325 324 324 323 323 322 321 320 319 318 317
310 309 308 308 308 308 309 310 310 310 312 313 313 313 314 317 319 318 316 315 318 319 317 319 318 314 319 331 336 336 337 338 339 339 337 335 334 334 334 332 333 331 330 330 330 331 330 329 328 327 327 327 325 325 325 325 324 324 325 326 326 326 326 326 326 327 328 328 328 328 328 327 326 325 324 323 323 323 322 321 320 319 318 317 316 314
310 309 309 308 309 309 310 310 310 310 312 312 313 314 314 315 317 316 316 316 316 316 314 317 318 312 318 331 334 333 336 336 337 338 336 334 333 334 333 331 331 330 329 328 328 329 328 327 327 326 325 325 324 323 323 323 323 323 323 323 323 322 323 323 323 324 324 324 324 324 324 324 323 323 323 322 321 321 320 319 318 317 316 314 313 312
310 310 309 309 309 309 310 309 309 310 311 312 313 313 312 313 314 313 314 315 315 312 311 315 319 314 315 324 331 332 334 333 335 337 336 335 333 333 332 330 329 328 327 326 325 326 326 326 326 326 325 324 323 322 322 322 322 321 321 321 321 321 321 321 321 321 321 321 321 321 320 320 320 320 320 319 318 317 317 316 315 315 314 312 312 311
310 309 309 310 310 310 310 308 309 309 310 311 311 311 311 311 312 313 312 313 312 311 312 314 319 316 313 320 330 332 333 333 334 335 335 334 334 334 332 330 328 327 325 325 325 325 326 325 325 325 324 323 322 321 320 320 320 320 320 320 320 320 320 320 319 319 319 318 318 318 318 317 317 317 317 316 315 315 314 314 313 313 312 311 310 310
311 311 310 310 310 310 309 308 308 308 309 310 310 310 310 311 314 314 313 312 311 312 315 316 318 316 313 322 332 331 331 334 334 334 334 334 334 333 331 329 327 326 325 325 325 325 326 325 324 323 323 322 321 321 321 320 320 320 320 319 319 319 319 318 318 318 317 317 316 316 316 315 315 314 314 313 313 313 312 312 312 311 310 310 309 309
312 312 311 310 310 310 310 309 309 309 309 309 311 312 310 310 313 313 312 311 311 313 316 318 318 313 314 325 334 332 331 332 333 334 334 334 332 330 328 326 326 325 325 326 325 325 327 326 324 324 323 322 322 321 321 321 320 320 319 319 319 318 317 317 317 316 315 315 314 314 313 313 313 312 312 311 311 311 310 310 310 309 309 309 308 308
312 312 311 311 311 310 309 310 310 310 309 310 311 311 310 311 311 311 314 314 312 314 319 319 318 318 323 330 332 332 332 331 332 334 334 333 331 328 327 326 326 326 325 325 325 325 325 325 324 324 323 322 322 321 321 320 320 320 319 318 318 317 316 316 315 314 314 313 312 312 312 311 311 311 311 310 309 309 309 309 309 308 308 308 307 307
311 311 311 311 311 310 310 310 310 310 309 310 310 309 311 314 313 311 314 317 316 316 319 318 318 321 327 330 331 332 332 331 333 333 333 333 330 328 329 329 327 326 325 326 326 324 325 324 323 323 322 321 321 321 320 320 319 319 318 318 317 316 315 315 314 313 312 312 311 310 310 310 310 309 309 309 308 308 308 308 308 307 307 307 306 306
311 311 310 311 310 311 311 310 310 310 311 310 308 309 312 314 314 312 311 315 315 314 317 318 317 319 319 325 332 333 331 333 334 334 333 332 330 330 330 329 327 326 325 325 325 324 325 324 322 322 321 321 320 320 319 319 318 318 317 317 316 315 315 314 312 312 311 310 310 309 309 309 309 308 308 308 308 308 307 307 307 306 306 306 305 305
312 311 310 310 310 311 311 310 310 310 310 311 310 311 312 311 312 311 311 314 312 312 319 319 317 317 315 323 333 333 331 334 334 334 334 331 330 330 330 328 327 325 325 325 324 323 324 323 322 321 320 320 319 318 318 318 317 317 316 315 315 314 313 312 311 311 310 310 309 309 308 308 308 308 307 307 307 307 306 306 306 306 305 305 304 304
312 312 311 310 311 311 310 310 309 309 310 311 311 311 311 311 311 311 312 313 312 312 317 319 319 317 316 325 333 332 332 334 334 334 333 331 330 330 329 327 326 326 325 324 322 322 323 322 321 320 320 319 318 317 317 317 316 315 315 314 313 313 312 311 311 310 309 309 308 308 308 307 307 307 307 307 306 306 305 305 305 304 304 303 303 303
312 313 312 310 311 311 310 310 310 310 309 309 309 310 310 311 311 312 312 310 311 311 313 321 324 319 317 327 332 332 333 334 333 333 333 331 330 330 329 326 326 326 325 324 322 322 323 322 320 319 318 318 317 317 316 316 315 315 314 313 312 312 311 310 310 309 308 308 308 307 307 306 306 306 306 305 305 304 304 304 303 303 303 302 302 302
311 312 312 311 311 310 310 311 310 311 311 309 309 310 310 311 310 312 313 311 311 310 311 318 319 316 321 330 330 332 334 334 333 332 332 332 330 330 328 326 326 325 324 323 322 322 323 321 319 318 317 317 317 316 316 315 315 314 313 312 312 311 311 310 309 308 308 307 307 306 306 306 305 305 305 304 304 303 303 303 302 302 302 302 302 301
312 312 311 311 311 311 311 312 311 312 312 310 310 310 311 312 310 310 311 312 311 310 312 314 312 317 329 333 330 332 334 334 333 331 332 332 331 329 328 326 325 324 322 321 321 321 321 320 319 317 317 317 316 316 315 315 314 314 313 312 311 310 309 309 308 308 307 306 306 306 305 305 304 304 304 304 303 302 302 302 302 301 302 302 301 301
311 312 312 311 310 310 311 312 311 312 312 311 311 311 311 311 311 310 311 313 312 310 313 314 311 320 331 332 331 334 334 333 332 331 331 331 330 328 326 325 324 323 322 320 320 320 320 318 317 317 316 316 316 315 315 314 314 313 312 311 310 309 308 307 307 307 306 306 305 305 305 304 304 303 303 303 303 302 302 302 301 301 301 301 301 301
310 311 312 311 311 312 312 311 311 312 312 312 311 311 312 312 313 313 311 314 313 310 312 312 309 320 330 330 330 333 333 332 331 331 331 329 327 326 324 324 322 321 320 319 318 318 318 317 317 316 316 316 315 315 315 314 313 312 311 310 309 308 307 307 306 306 306 305 305 304 304 304 303 303 303 302 302 302 302 301 301 301 301 300 300 300
310 311 311 312 312 312 312 311 311 311 311 312 312 312 312 311 312 313 312 313 312 310 311 309 309 322 332 329 328 331 331 332 332 331 329 326 324 324 323 323 321 319 318 317 317 317 317 317 317 317 316 316 315 315 314 314 313 312 311 310 308 308 307 307 306 306 305 305 304 304 304 303 303 303 302 302 302 301 301 301 301 300 300 300 300 300
311 313 313 312 312 311 311 311 312 312 311 311 312 312 312 312 313 313 312 311 311 310 311 310 313 325 332 330 329 330 331 332 331 329 327 325 323 323 323 321 319 318 317 317 317 316 316 317 317 317 316 316 315 315 314 313 312 311 310 309 308 308 307 306 306 306 305 304 304 304 303 303 303 302 302 301 301 301 300 300 300 300 300 300 300 300
311 312 313 314 314 313 313 313 313 313 312 311 312 312 313 313 313 313 312 311 312 312 311 313 315 320 327 332 331 329 330 332 330 327 326 325 323 322 321 319 318 318 317 317 317 316 316 316 316 316 316 315 315 314 313 312 311 311 310 309 308 307 306 306 306 305 304 304 303 303 303 303 302 301 301 301 301 300 300 300 300 300 300 299 300 299
311 310 312 314 314 314 315 315 314 313 312 312 312 313 313 314 313 313 313 313 314 313 312 317 317 315 321 330 331 330 331 330 328 326 325 324 322 321 319 318 318 317 316 316 316 315 315 315 316 316 315 315 314 314 313 312 311 310 309 308 308 307 306 305 305 304 303 303 303 303 302 302 301 301 301 300 300 300 300 300 299 299 299 299 300 299
311 311 313 313 312 313 316 316 314 314 314 313 313 312 313 314 313 314 315 314 315 315 314 319 319 315 320 330 330 330 330 329 327 326 324 323 322 320 319 318 317 316 316 316 315 315 315 315 315 315 315 315 314 313 312 311 310 309 309 308 307 307 306 305 304 304 303 302 302 302 302 302 301 301 300 300 300 300 300 300 300 299 299 299 299 299
311 312 313 312 311 313 317 317 315 314 315 314 314 313 313 314 314 315 316 315 316 316 316 318 318 317 324 330 330 330 329 327 327 326 325 323 321 320 320 319 318 316 316 315 315 315 315 315 315 314 314 313 313 312 311 310 309 308 308 308 307 307 306 305 303 303 302 302 302 302 302 301 301 300 300 300 300 300 299 299 299 299 299 299 299 299
311 312 313 312 310 311 316 317 316 316 316 315 314 314 314 314 314 315 315 316 317 316 317 318 316 317 326 330 329 329 328 327 326 326 325 323 321 320 320 319 318 317 316 315 315 314 314 314 314 314 313 312 311 311 309 308 307 307 307 306 306 307 305 304 303 302 302 302 302 302 301 301 300 300 300 300 299 299 299 299 299 299 299 299 299 299
310 311 313 311 309 311 315 318 317 316 315 315 317 320 319 316 316 318 319 321 320 317 317 316 314 318 328 329 329 328 327 326 326 325 324 324 322 321 320 319 318 316 315 315 315 314 314 314 314 313 312 311 310 309 308 306 306 305 305 305 306 306 304 303 302 302 302 302 301 301 301 300 300 299 299 299 299 299 299 299 299 299 299 299 299 298
310 310 312 312 310 311 316 319 316 314 315 317 321 324 325 322 319 319 320 321 319 318 320 321 320 324 329 328 328 327 326 325 325 323 323 324 323 322 321 319 318 317 316 315 315 315 314 314 313 312 311 310 309 308 307 306 305 305 305 305 306 305 304 303 302 301 301 301 301 301 301 300 299 299 299 299 299 299 299 299 299 299 299 299 299 298
312 310 312 313 310 311 316 318 314 314 318 322 323 321 322 323 322 320 321 321 319 320 325 325 325 329 330 328 327 327 326 325 324 323 323 323 323 322 321 320 319 318 317 316 315 315 314 313 312 311 310 309 308 307 306 306 305 305 304 304 304 304 302 301 301 301 301 301 301 301 301 300 300 299 299 299 299 299 299 299 299 299 299 299 298 298
313 311 312 312 311 313 316 315 314 316 321 325 323 320 319 321 322 320 321 321 320 322 323 321 323 328 329 328 327 327 326 325 323 323 323 323 322 321 320 320 320 319 318 316 315 314 313 312 311 310 309 308 307 307 307 306 305 304 303 302 302 301 301 301 301 301 302 302 301 301 300 300 299 299 299 299 299 299 299 299 300 299 299 298 298 298
313 312 312 313 313 314 314 314 314 317 321 324 326 323 322 324 323 320 318 319 320 321 320 321 324 328 329 328 327 326 324 323 323 323 322 322 322 320 320 320 319 318 317 316 315 314 313 311 310 309 308 307 307 307 307 306 305 303 302 301 301 301 301 302 302 302 302 301 301 301 300 300 299 299 299 299 299 299 299 299 299 299 299 298 298 298
313 313 312 313 314 314 313 313 315 315 316 320 325 326 324 325 326 324 320 320 322 322 320 322 326 328 328 326 325 324 323 323 324 323 321 321 321 320 320 320 319 317 316 315 314 313 312 310 310 309 308 307 307 307 307 306 304 303 302 302 302 302 302 302 302 302 301 301 300 300 300 299 299 299 299 299 299 299 299 299 299 299 299 299 298 298
314 314 313 313 314 314 312 313 315 315 314 317 325 327 324 323 325 325 320 319 323 323 320 321 325 327 327 325 324 323 323 324 325 323 320 320 320 320 320 319 318 317 316 314 313 312 311 310 309 308 307 307 307 307 307 306 304 303 303 302 302 302 302 302 301 301 300 300 300 299 299 299 299 299 299 299 299 299 299 299 299 299 299 298 298 298
314 313 313 313 313 314 313 313 313 314 316 322 326 324 321 321 324 324 319 318 323 325 321 321 325 326 325 324 323 323 324 325 326 324 321 320 320 321 320 318 317 317 315 314 312 311 310 309 308 307 307 307 307 307 306 305 304 303 302 302 302 302 302 301 301 300 300 299 299 299 299 299 299 299 299 299 300 299 299 299 299 299 299 298 298 298
314 313 312 312 312 313 315 314 312 313 319 325 324 321 320 321 322 321 318 319 323 323 321 322 325 326 325 323 322 323 323 323 323 322 320 319 319 320 320 318 317 316 314 312 311 310 309 308 307 307 307 306 307 306 306 304 303 302 302 302 302 302 301 300 300 299 299 299 299 299 299 299 299 299 299 299 299 299 300 300 300 300 299 299 299 298
315 313 313 313 312 312 313 314 313 313 319 323 322 321 320 320 319 319 320 320 322 322 322 323 324 325 324 323 322 323 323 321 321 321 319 319 319 319 318 317 316 314 313 311 309 309 308 308 307 306 306 306 306 305 305 303 303 302 302 301 301 301 301 300 300 299 299 299 299 299 299 299 300 300 300 300 299 299 300 300 300 300 299 299 299 299
317 314 313 313 313 313 313 314 313 314 318 322 321 320 320 320 319 321 322 321 321 322 322 323 324 324 323 322 322 322 321 319 319 320 319 319 319 317 317 317 315 313 311 310 309 309 308 307 307 306 306 305 305 305 304 303 302 302 301 301 301 301 300 300 300 299 300 299 299 299 299 299 299 300 300 300 300 300 300 300 300 300 300 300 300 299
319 316 314 314 314 313 313 314 316 317 320 322 321 320 321 320 319 321 323 322 322 322 322 322 324 323 322 322 322 321 320 319 319 319 319 318 317 316 316 316 314 312 310 309 309 308 308 307 307 306 305 305 304 304 303 302 302 302 301 301 301 300 300 300 300 300 300 300 299 299 299 299 299 300 300 300 300 300 299 300 300 300 300 300 299 299
320 319 318 317 317 316 315 316 319 319 320 321 320 319 319 319 317 318 321 322 322 322 322 322 323 322 322 322 321 319 319 318 318 318 318 316 316 315 315 314 313 311 310 309 309 308 308 307 306 305 305 304 304 304 303 302 302 302 302 301 301 300 300 300 300 300 300 300 300 300 299 299 300 300 300 300 300 300 300 300 300 300 300 300 299 299
320 319 319 319 319 318 318 319 319 319 320 320 318 316 316 317 316 317 319 321 321 321 321 321 322 322 321 320 319 318 318 318 317 317 317 315 315 314 313 313 312 310 309 309 309 308 307 307 306 305 304 304 304 303 303 302 301 302 302 302 301 300 300 300 300 300 300 300 300 300 300 300 300 300 300 300 300 300 300 300 300 300 300 300 300 299
319 318 318 320 319 318 318 320 320 320 319 319 317 316 316 316 315 316 318 320 320 319 320 320 321 321 320 319 318 318 317 317 316 316 316 315 313 312 312 313 312 310 310 310 309 308 307 307 306 305 304 304 304 303 303 302 301 302 302 302 301 301 301 300 300 300 300 300 300 300 300 300 300 300 300 300 300 300 299 299 299 300 300 300 300 300
319 317 318 319 319 318 319 320 319 318 318 317 317 317 317 316 316 315 316 318 319 318 318 319 319 319 318 318 318 318 317 316 316 315 314 313 312 312 312 313 312 311 310 310 309 308 308 307 306 305 305 304 304 303 303 302 302 302 302 301 301 301 301 301 301 301 301 301 300 300 300 300 300 300 300 300 300 300 299 299 299 299 299 299 299 300
317 316 318 319 319 318 318 319 319 318 318 317 317 317 317 317 316 316 316 317 318 318 318 318 317 317 317 317 317 317 316 316 315 314 313 312 311 312 312 311 311 311 310 309 309 308 308 307 306 305 305 304 304 303 303 302 302 302 302 301 301 301 301 301 301 301 301 301 300 300 301 300 299 300 300 300 300 300 300 299 299 300 299 298 297 297
316 317 318 317 317 317 318 319 319 319 320 319 318 317 317 316 317 317 317 317 318 318 318 317 317 316 317 317 317 316 316 315 314 313 312 311 311 311 311 310 310 310 310 309 309 308 308 307 306 306 305 304 304 303 303 302 302 302 301 301 301 302 301 301 301 301 301 301 301 301 301 300 300 300 300 300 300 299 299 297 297 297 298 297 296 295
317 319 319 317 317 318 318 318 318 319 320 319 317 317 316 316 316 317 318 318 318 317 317 317 316 316 316 316 317 317 316 315 314 313 311 310 311 311 310 309 310 310 310 309 308 309 309 308 307 306 305 304 304 303 303 303 303 302 301 301 301 302 302 301 301 302 302 302 301 301 300 301 300 300 300 300 300 299 299 297 296 295 296 296 296 295
Wind_Speed
11 9 12 13 15 17 17 18 12 3 6 12 13 11 9 10 7 8 10 7 7 10 9 9 10 11 12 11 12 11 10 12 13 12 11 10 9 9 10 11 10 6 4 5 6 7 9 13 12 11 14 15 16 16 14 14 12 10 11 12 12 11 11 10 9 8 7 7 9 9 10 11 9 8 8 9 9 8 8 8 8 8 8 7 7 7
12 12 14 16 15 17 18 17 11 4 6 10 11 11 9 8 8 9 10 7 6 7 7 8 10 10 10 10 10 11 12 12 13 13 12 13 11 9 11 13 12 8 7 9 11 11 8 6 11 11 13 14 13 15 16 14 12 10 11 12 12 10 10 9 9 9 9 8 8 10 11 11 9 9 9 10 10 10 10 9 8 8 8 8 7 7
12 12 16 18 15 16 17 15 11 7 8 7 8 10 8 8 10 9 9 9 8 6 8 10 9 8 9 9 9 10 10 9 11 12 13 14 12 11 11 12 12 9 8 8 11 14 13 10 10 10 10 12 12 14 15 13 12 12 12 12 12 11 10 10 9 9 10 10 10 10 11 10 9 9 9 9 9 9 10 9 7 7 6 6 6 6
11 12 16 17 14 15 16 14 12 8 7 7 8 9 8 10 10 7 9 10 8 6 11 13 9 7 8 8 9 8 7 7 9 11 12 12 12 12 12 11 11 10 9 9 10 11 10 10 8 8 8 10 11 13 14 13 13 13 13 13 12 11 11 10 10 11 11 11 11 11 11 10 10 10 9 9 8 8 9 8 7 7 6 6 6 6
11 11 14 15 14 16 15 15 15 9 7 8 8 8 9 11 9 7 11 11 9 9 13 14 8 5 7 8 7 7 7 8 9 12 11 10 11 12 11 9 10 11 10 9 10 11 10 6 6 7 8 9 10 13 13 12 13 14 14 13 12 11 11 11 11 11 11 12 12 12 12 11 10 9 8 8 8 8 8 8 7 7 6 6 6 6
11 10 14 16 16 16 15 15 16 12 8 8 7 5 6 12 11 13 16 13 9 9 13 13 7 6 8 8 8 7 9 9 9 12 12 11 11 11 10 9 10 12 11 10 10 11 13 10 7 7 9 10 12 13 11 11 13 14 14 13 12 12 11 10 10 9 9 10 11 12 11 10 10 9 8 8 8 7 7 7 7 7 8 7 7 7
9 12 14 17 17 18 16 14 16 15 8 7 9 4 5 12 14 16 16 12 8 8 12 12 8 5 7 9 11 10 10 11 10 12 13 12 11 10 10 10 12 13 12 12 12 13 14 14 10 8 8 10 12 12 11 11 13 14 14 13 13 12 11 9 8 8 7 7 8 8 8 8 8 9 9 8 7 6 6 6 6 7 8 9 9 9
10 15 16 17 17 16 14 12 15 17 9 5 12 10 7 11 14 14 13 10 7 8 11 11 8 6 6 8 12 12 10 11 11 12 13 13 12 10 11 11 12 13 14 14 13 13 16 16 13 10 10 11 12 12 10 10 13 15 14 13 13 12 11 9 8 8 8 8 8 8 8 8 8 8 8 7 6 6 5 5 5 5 7 8 9 10
11 16 16 18 17 13 12 12 14 17 10 6 12 12 8 9 11 11 10 7 6 8 9 10 9 8 7 8 11 11 11 11 12 14 14 15 14 11 12 12 11 12 14 15 14 14 17 17 15 13 13 12 12 13 12 12 15 17 17 15 15 14 13 11 10 9 8 8 7 7 7 8 7 7 7 6 5 5 4 4 5 5 6 7 8 9
9 14 14 16 13 10 13 12 14 17 10 8 12 11 8 7 8 8 7 6 7 8 9 12 12 10 7 9 10 10 12 12 13 14 14 15 16 13 12 12 11 11 11 13 14 16 18 18 17 15 15 14 12 14 16 16 16 16 16 16 16 16 15 13 12 11 9 7 6 6 6 7 7 6 6 5 5 4 4 4 5 5 6 6 7 9
10 12 12 12 11 10 12 10 14 17 11 9 11 10 8 7 6 5 5 4 7 8 10 14 15 12 7 8 10 10 12 15 14 14 14 15 16 14 13 12 11 11 11 12 13 16 18 19 18 17 16 15 13 14 15 17 16 14 14 15 15 15 14 13 12 12 11 10 8 8 8 8 7 6 5 5 5 5 5 5 5 6 7 7 8 9
13 13 11 10 9 10 11 10 13 16 12 10 10 9 8 7 5 5 5 4 7 8 9 14 15 12 9 7 11 12 12 16 16 16 18 19 18 16 13 12 11 10 11 12 12 14 17 18 19 18 17 15 15 15 15 15 16 14 14 15 15 14 13 13 13 13 13 12 11 11 10 9 8 7 7 7 6 6 6 6 6 7 7 8 9 10
12 12 11 10 9 11 12 11 11 12 12 11 11 10 9 8 7 8 8 7 8 5 5 11 13 10 7 5 12 16 15 15 16 16 18 19 19 16 14 13 11 10 11 12 12 13 14 17 18 18 17 16 15 16 17 18 16 15 14 14 14 13 12 13 14 14 13 13 12 11 11 10 10 10 9 9 8 7 8 8 8 8 8 9 10 11
10 10 12 12 10 12 14 11 10 11 12 13 12 11 10 9 8 9 8 8 8 4 4 9 9 8 7 4 8 15 15 15 15 16 17 18 17 15 14 13 12 11 11 11 11 12 12 15 17 18 17 16 16 15 15 15 15 14 13 13 14 13 12 12 13 14 13 13 12 11 10 10 10 11 10 10 10 9 9 9 9 9 9 10 11 11
11 8 12 13 10 13 16 12 11 11 12 13 11 10 10 7 7 8 7 9 10 7 7 9 7 6 7 3 1 6 12 14 13 14 16 16 15 14 13 13 13 13 11 10 11 12 14 16 17 18 18 17 17 16 14 13 13 13 13 13 13 13 12 12 13 13 13 12 11 11 11 10 10 10 10 10 10 10 10 10 10 10 10 10 11 11
11 7 12 13 8 14 17 13 13 13 11 11 10 10 10 8 6 4 1 2 6 7 7 9 5 1 2 3 1 3 9 14 14 15 17 16 15 14 13 13 13 13 11 12 12 12 16 18 17 17 18 17 17 16 14 14 13 14 13 13 13 13 12 12 12 12 12 12 11 11 11 11 10 10 10 11 11 11 11 11 11 10 10 11 11 11
9 7 15 14 7 14 17 12 13 12 8 8 10 10 8 6 5 5 3 5 5 6 7 8 6 3 3 4 4 6 11 15 15 16 17 17 17 16 13 13 14 13 12 13 13 14 17 18 18 18 17 16 16 16 15 14 14 14 14 14 14 13 11 11 11 11 11 11 12 11 11 12 11 11 11 11 12 11 11 10 11 11 11 11 11 11
6 7 14 15 11 14 15 11 13 14 9 7 9 9 6 2 3 5 5 5 6 7 5 8 10 8 7 5 7 11 14 15 16 17 17 17 17 17 15 14 14 14 14 14 14 15 18 19 18 18 17 16 16 16 16 15 14 14 13 14 14 13 12 11 11 11 10 11 11 12 12 12 12 12 12 12 12 11 11 11 11 11 11 11 11 11
5 6 10 13 12 13 13 11 12 14 11 6 8 11 8 5 6 7 6 6 9 9 5 9 12 10 9 7 10 15 16 17 19 18 18 19 19 17 15 16 16 15 14 14 14 14 17 19 19 19 18 17 16 16 16 15 15 14 14 14 14 13 13 11 10 10 10 10 11 11 12 11 12 12 12 12 12 12 12 12 12 12 12 12 12 12
6 4 8 11 13 13 12 10 11 12 9 7 8 10 9 7 7 7 7 5 7 8 6 8 9 8 8 8 13 18 19 21 22 20 20 21 20 18 16 16 16 16 14 13 14 14 16 19 20 20 19 18 17 16 16 15 15 15 15 14 14 14 13 11 11 11 11 11 11 12 12 13 13 13 13 13 13 13 13 12 12 12 12 12 13 13
6 3 6 10 11 11 10 9 11 12 12 9 9 10 10 6 3 5 8 7 6 7 7 7 6 6 6 8 13 19 20 22 23 22 21 20 20 19 17 17 17 15 15 15 14 14 18 20 20 20 20 20 19 17 16 16 15 15 15 14 14 13 12 11 11 11 11 12 12 13 14 14 14 14 14 14 14 14 13 13 13 12 13 13 13 13
6 4 7 9 9 9 10 11 14 12 13 12 9 9 11 8 5 6 8 7 7 6 6 6 6 5 5 7 12 17 18 19 21 21 18 19 21 19 17 18 18 16 16 16 15 15 19 21 21 21 20 20 19 18 17 16 15 15 14 14 13 12 11 10 10 11 12 12 13 14 14 14 14 14 14 14 14 14 14 13 13 13 13 13 13 13
3 4 7 8 8 9 7 10 14 12 12 14 11 10 11 9 9 9 7 8 8 6 4 5 5 3 3 3 8 12 13 14 17 18 15 15 17 17 18 19 18 17 17 16 16 17 19 21 21 21 21 20 19 18 17 16 15 15 14 13 13 12 12 11 11 12 12 14 14 15 15 15 15 15 15 15 15 14 14 14 13 13 13 12 12 12
2 4 7 7 8 8 5 6 10 10 10 12 12 11 11 10 11 9 6 6 8 8 6 5 5 4 3 1 4 7 10 13 14 15 13 12 12 15 19 19 17 16 17 16 16 17 19 21 21 21 21 20 19 17 16 16 15 15 14 13 13 13 13 13 13 13 14 15 16 15 15 15 15 15 15 15 15 14 14 13 13 13 13 12 12 12
4 6 7 7 8 8 7 8 10 11 10 9 9 12 12 12 13 11 7 5 7 11 11 9 6 4 4 2 6 7 10 13 13 12 13 13 13 15 17 17 16 16 16 16 16 17 19 20 21 21 20 20 19 17 16 16 15 15 15 14 14 14 13 13 14 15 15 16 16 16 16 16 15 15 15 15 14 14 13 13 13 12 12 13 13 12
5 6 7 7 8 9 9 8 8 10 9 8 9 13 14 15 15 11 7 6 7 10 12 10 7 4 4 4 10 12 11 13 14 13 13 14 15 15 14 13 14 15 16 18 18 17 17 19 20 20 20 20 19 18 17 16 15 16 16 14 14 14 14 14 15 16 16 16 16 16 16 15 15 15 14 14 14 13 13 13 13 12 13 13 13 13
4 5 8 8 6 6 8 7 6 8 10 10 12 14 15 15 15 12 8 8 7 7 9 11 8 5 6 8 13 15 14 14 15 15 15 15 16 16 15 13 14 15 15 18 18 17 17 18 19 20 20 20 19 18 17 16 16 16 16 15 14 14 14 14 15 16 16 16 16 16 15 15 14 13 13 13 13 13 13 13 13 13 12 13 13 13
4 6 9 8 3 1 1 4 6 8 12 13 14 15 14 15 16 14 11 9 8 7 8 10 10 8 9 12 15 17 16 16 16 17 16 16 17 16 16 16 17 16 17 18 17 18 18 18 18 20 20 20 20 19 17 16 16 16 16 15 15 14 14 14 15 16 16 16 16 15 15 14 13 13 13 13 13 13 13 13 13 12 12 13 13 13
5 6 9 9 4 2 4 5 4 6 10 12 14 15 15 16 18 17 14 13 10 8 6 8 12 12 11 14 17 18 19 18 18 17 16 16 17 17 17 18 18 18 19 19 17 17 17 17 18 21 21 20 20 20 18 17 16 16 15 15 15 14 14 15 16 16 16 16 16 15 14 13 13 12 12 13 13 13 12 12 12 13 13 13 12 13
6 5 7 9 7 4 2 3 2 3 6 8 12 15 16 17 18 17 16 16 14 11 8 7 12 13 9 11 16 16 15 14 14 15 16 18 19 19 19 19 19 19 20 19 17 16 16 18 21 21 21 20 20 20 18 17 16 16 15 15 15 15 15 15 16 16 16 16 16 15 14 13 12 12 12 13 13 12 12 12 12 13 13 13 12 13
6 3 6 8 7 6 5 2 2 4 4 7 10 13 15 16 17 17 16 16 14 13 11 8 11 10 4 6 11 13 13 13 15 18 19 19 20 21 20 20 19 19 20 19 18 18 17 19 21 21 20 20 20 20 18 17 16 16 16 15 15 15 15 15 16 16 16 16 16 15 14 13 13 13 12 12 12 12 13 13 13 13 13 13 13 13
6 3 5 7 7 7 7 5 4 4 5 8 11 12 14 14 14 14 13 13 13 14 12 10 10 8 5 7 11 14 15 16 18 20 19 19 20 22 22 21 20 19 20 19 18 18 18 19 20 21 21 20 20 19 19 18 17 16 16 15 15 16 16 16 17 16 16 16 15 15 14 13 13 12 12 12 13 13 13 13 13 13 13 13 13 13
8 5 4 7 7 6 6 5 4 4 7 8 7 7 9 12 11 10 8 10 13 13 11 10 11 8 9 12 14 15 16 18 19 20 19 20 21 22 21 21 20 19 19 18 18 19 19 19 20 21 21 21 21 20 19 19 18 17 16 16 16 17 17 17 17 16 16 15 14 14 14 14 13 12 12 12 13 13 13 12 12 12 12 12 12 13
10 8 5 6 6 6 7 5 3 7 7 4 1 2 2 6 11 12 10 11 14 12 6 5 6 7 13 15 16 18 19 20 19 19 18 18 19 20 21 21 21 20 20 19 19 20 21 21 21 20 20 20 21 20 20 19 18 18 17 17 17 17 18 17 17 16 16 15 14 14 14 14 14 13 12 12 13 12 12 12 12 11 12 12 12 12
10 9 6 5 5 5 6 6 7 9 4 2 3 2 2 1 5 9 9 10 14 12 7 6 6 10 14 15 15 17 17 16 15 16 18 18 18 20 21 22 22 21 21 21 20 21 22 22 22 21 21 21 21 21 20 19 19 19 18 18 18 18 18 18 18 16 15 15 14 14 14 14 14 13 13 13 13 12 12 11 11 11 11 11 11 11
10 9 6 5 5 4 5 7 8 3 2 4 3 2 2 1 3 7 6 9 13 13 13 12 10 9 11 11 10 10 11 12 12 13 16 18 19 20 21 21 22 22 22 22 22 23 24 24 25 25 24 23 23 22 20 20 20 19 19 19 19 19 19 19 18 16 15 14 14 14 14 14 14 13 13 13 12 12 11 11 10 10 10 11 11 11
9 9 7 5 5 4 5 8 6 1 2 5 3 4 6 4 6 7 6 8 14 14 13 12 9 9 11 10 10 11 11 11 10 10 14 18 20 22 22 21 22 23 24 26 27 27 27 27 26 26 25 25 25 23 21 21 21 20 20 19 19 19 19 18 17 16 15 14 14 14 14 14 14 13 13 12 12 11 11 10 10 10 10 10 11 10
8 8 8 7 5 5 6 8 7 6 7 5 4 7 8 3 3 5 4 5 12 15 14 13 11 12 13 12 13 14 12 10 9 10 16 21 22 23 22 22 24 27 27 28 28 27 27 27 27 26 26 27 25 23 23 23 22 20 20 20 19 19 19 17 17 16 15 14 14 14 14 14 13 13 13 12 11 11 10 10 9 9 9 9 10 10
9 8 7 7 6 6 8 8 8 8 6 4 5 7 8 5 3 5 6 5 10 15 16 15 14 14 14 14 16 15 12 10 10 10 17 23 23 23 21 21 24 27 28 29 30 29 28 28 27 26 26 26 25 23 24 24 22 21 20 20 20 19 18 18 17 16 16 15 15 15 14 14 13 13 12 11 11 10 10 9 9 8 8 8 9 9
9 7 6 8 7 7 8 8 7 6 2 4 6 6 7 5 2 5 7 3 5 10 15 16 16 16 16 16 15 14 12 8 5 7 17 22 22 22 22 21 23 27 28 29 31 32 31 29 28 28 27 25 24 24 25 23 22 21 21 21 20 19 19 18 18 17 17 16 15 15 14 14 13 12 12 11 10 9 9 8 8 8 8 8 9 9
8 7 7 9 8 8 9 8 7 5 3 6 6 7 8 6 3 6 5 1 3 7 11 12 14 16 17 17 14 12 9 1 2 10 20 22 21 21 23 24 26 27 28 29 30 31 30 30 30 29 28 26 24 25 25 24 22 22 21 21 20 20 20 19 19 18 18 17 16 15 14 13 12 12 11 10 10 9 8 8 7 7 8 8 9 9
7 7 7 8 8 8 8 7 8 5 3 6 7 7 5 4 3 3 1 1 2 8 9 9 11 13 15 16 12 8 5 4 6 16 23 23 22 20 21 25 28 27 29 32 32 31 29 28 29 28 27 26 25 25 25 24 23 23 22 21 21 21 21 20 20 19 18 17 16 15 14 13 12 11 10 9 9 8 8 7 7 7 7 7 8 8
5 6 7 7 7 6 6 8 8 5 3 10 11 7 3 4 1 1 1 0 2 8 10 8 9 11 12 13 10 7 6 7 10 17 21 21 21 21 22 25 26 26 28 31 32 32 30 28 28 28 26 26 26 25 25 25 24 23 22 22 22 22 21 21 20 19 17 16 16 14 13 13 11 10 9 8 8 7 7 6 6 6 6 6 6 6
3 5 5 5 6 6 7 7 4 1 4 11 9 3 1 0 4 4 1 1 3 7 9 8 8 10 12 11 10 8 7 8 11 17 20 21 22 22 23 24 25 27 29 29 30 31 31 30 29 27 26 26 25 24 25 25 25 24 23 23 23 22 22 21 19 18 17 16 15 14 13 12 11 9 9 8 7 7 6 5 4 5 5 5 5 6
1 1 2 2 3 4 4 1 2 3 3 6 2 4 3 2 4 4 3 1 2 5 7 7 9 11 12 12 11 9 9 11 14 17 20 21 22 22 23 25 27 29 30 30 30 31 31 31 30 28 27 27 25 24 25 25 25 25 24 24 23 23 22 21 19 18 17 16 15 14 13 12 10 9 8 8 6 6 5 4 3 3 4 4 5 5
2 2 1 2 1 2 2 1 1 1 3 5 2 3 3 2 3 3 3 1 2 3 4 6 8 11 11 12 12 11 11 13 15 17 19 20 21 21 23 25 28 30 31 31 31 31 32 31 30 29 28 27 26 25 25 25 26 25 24 24 24 22 21 20 19 18 17 16 15 13 12 12 10 9 8 7 5 5 4 3 3 3 3 3 3 5
2 2 3 3 1 2 2 3 2 0 2 4 4 2 1 1 1 2 3 1 2 3 4 5 8 10 11 12 13 12 12 14 16 16 17 18 18 20 21 24 27 30 31 31 32 33 32 30 30 30 29 27 26 25 25 25 26 25 24 24 24 22 21 20 18 17 16 15 14 13 12 11 10 9 8 7 5 5 4 3 3 2 2 2 3 3
3 3 4 4 4 4 2 2 3 1 2 4 6 4 2 2 2 1 2 2 1 4 5 6 7 10 10 11 13 13 13 15 16 16 16 15 16 17 19 24 28 29 30 31 33 34 32 30 30 31 30 28 27 25 25 25 25 24 24 24 24 22 21 19 18 17 16 15 14 13 12 11 10 9 8 7 6 5 4 4 2 2 3 4 4 4
3 3 3 2 4 6 4 2 3 3 4 5 7 6 4 2 2 2 2 2 3 6 7 7 9 10 10 12 12 13 15 15 16 16 16 15 15 17 20 25 28 29 30 31 32 33 32 31 32 31 30 28 27 25 25 25 24 24 25 25 23 22 21 19 18 16 15 14 13 12 11 11 10 9 7 7 6 5 4 3 2 3 4 4 3 3
3 4 2 3 6 6 2 1 0 2 2 3 4 7 6 4 3 4 5 5 6 7 8 9 10 10 11 13 13 14 15 15 15 17 16 15 16 20 24 27 28 29 30 31 31 31 31 31 32 31 30 28 27 26 25 25 24 24 25 24 23 22 21 19 18 16 15 14 13 12 12 11 10 9 7 7 7 6 5 5 3 2 3 3 3 3
3 2 1 3 4 1 3 5 3 3 1 3 3 3 5 4 4 4 5 5 6 7 8 9 11 11 11 13 14 15 15 14 17 18 16 16 20 24 26 28 28 28 30 31 31 31 30 30 31 31 29 28 27 26 25 24 24 24 25 24 23 22 21 19 17 16 15 14 13 12 12 11 9 9 8 7 7 7 7 7 6 4 3 3 3 3
Wind_Direction
185 190 198 201 199 194 194 201 201 205 212 188 181 193 190 177 156 116 123 137 181 177 153 145 141 137 142 140 133 143 166 167 158 151 140 137 142 136 127 120 118 117 71 62 102 125 146 151 148 145 138 140 147 147 146 147 151 151 144 137 131 131 130 129 131 126 124 123 116 110 102 93 89 92 92 88 88 85 81 76 68 64 62 58 54 48
190 205 203 200 199 191 191 199 192 174 193 188 183 186 188 175 137 118 135 141 172 170 137 138 140 130 130 130 137 153 164 167 161 153 144 139 138 129 125 124 117 102 63 40 38 39 46 103 119 119 122 122 128 135 135 137 142 139 130 123 117 117 114 110 112 108 105 106 111 112 107 101 95 97 97 94 92 88 86 82 74 68 63 57 53 48
195 211 202 196 198 189 185 189 183 177 187 190 189 191 188 157 125 116 136 151 173 172 149 145 131 112 114 130 151 154 154 163 161 151 146 144 139 127 120 118 113 105 99 80 55 42 23 22 70 88 102 112 118 123 121 119 120 116 112 109 106 106 105 101 101 102 100 100 106 108 106 108 107 104 103 100 96 91 88 80 70 64 58 54 48 40
193 206 196 188 188 181 176 182 187 189 196 198 196 197 179 152 149 146 144 155 166 158 148 140 123 116 119 126 138 133 128 139 144 147 150 150 148 140 135 134 134 129 113 102 91 78 41 15 49 73 76 94 110 114 113 113 111 107 106 105 103 101 100 99 97 98 98 96 99 101 104 111 111 106 102 98 94 91 87 77 68 62 55 54 51 42
195 193 180 175 176 177 176 182 190 191 191 194 203 206 173 158 170 154 141 147 146 143 147 138 129 146 142 135 133 125 134 142 144 153 157 152 148 144 141 137 130 124 110 105 108 102 91 60 57 86 96 96 98 103 108 111 108 110 109 104 103 101 98 101 102 104 106 107 111 114 114 113 109 106 103 99 96 92 86 77 71 63 55 56 55 49
196 171 165 174 181 185 184 185 192 194 186 183 203 227 162 151 147 135 141 149 148 158 166 165 169 163 158 165 161 149 154 159 162 165 163 156 152 148 144 131 119 121 121 119 120 116 117 113 90 90 105 98 88 91 100 104 106 111 111 105 103 101 97 97 101 106 111 119 128 132 131 130 125 116 107 102 96 89 83 82 78 64 56 59 61 55
181 162 173 184 184 187 189 191 192 194 198 181 178 173 129 143 145 145 156 166 175 178 178 194 209 163 161 180 174 168 163 162 173 175 167 165 169 162 147 140 139 139 135 129 130 129 123 116 102 92 98 97 93 96 100 101 104 105 106 109 109 104 99 94 92 95 98 106 116 118 116 122 124 117 109 103 97 93 92 91 82 65 56 56 56 50
166 167 181 185 183 188 193 195 188 193 208 163 153 155 147 152 154 160 173 188 197 170 170 203 218 181 176 179 170 169 162 161 176 180 172 174 180 166 147 149 156 153 143 138 136 132 126 122 117 109 102 100 99 103 101 97 105 108 105 107 109 107 103 99 96 93 93 97 101 103 102 105 111 113 113 109 104 104 102 90 78 65 53 46 44 41
162 174 177 181 186 190 195 192 178 190 206 128 141 163 167 166 165 173 188 194 187 172 179 198 202 199 186 164 165 171 170 174 182 182 181 182 182 167 153 155 158 153 144 140 138 132 128 126 125 119 110 106 102 105 107 102 103 107 109 110 110 109 103 100 99 96 97 102 100 102 108 111 113 114 115 114 112 108 99 82 69 62 52 44 42 41
170 183 177 182 192 191 194 187 170 188 198 124 143 165 166 172 172 183 202 186 177 197 202 188 190 208 187 158 171 181 183 189 188 186 185 184 183 172 163 162 156 150 143 137 134 132 130 127 123 119 113 109 104 106 113 113 104 100 107 112 110 109 107 102 96 92 92 97 94 92 98 107 112 114 114 112 110 102 89 78 69 64 57 50 48 44
159 174 181 190 201 193 184 172 169 188 187 137 152 163 159 176 175 188 215 189 187 215 211 188 193 216 206 171 179 189 193 190 183 183 182 183 182 172 165 165 157 148 142 138 132 128 127 124 122 120 116 114 110 107 108 110 105 98 100 103 101 101 103 99 93 89 86 85 86 87 90 95 97 98 103 101 95 89 85 82 75 72 68 62 58 51
155 171 183 188 203 192 171 165 174 186 180 162 176 176 165 175 176 191 202 198 212 221 206 187 192 217 227 194 183 193 199 188 180 181 181 182 181 172 165 163 155 146 141 138 133 130 127 125 126 125 123 121 115 112 112 109 106 101 98 98 96 94 93 93 91 87 83 81 82 84 85 87 87 87 90 90 88 87 85 86 85 82 77 69 62 57
164 175 175 173 193 192 176 170 174 181 184 187 190 183 180 177 178 197 194 198 216 212 187 181 183 211 232 183 178 190 196 188 181 180 180 180 179 172 165 158 149 145 145 142 138 138 133 129 130 129 127 124 116 114 118 116 111 105 102 101 98 95 91 90 89 86 82 80 77 77 78 78 79 79 78 79 80 79 78 82 85 83 78 72 65 61
162 169 175 175 184 196 195 183 175 181 186 194 194 187 192 185 180 198 192 194 206 165 144 179 180 207 210 143 166 188 190 186 179 176 178 178 174 166 159 151 144 145 148 145 142 141 136 133 132 130 129 128 123 121 122 119 115 110 107 106 102 98 93 88 88 85 82 78 74 74 75 75 76 76 74 74 74 72 75 78 80 79 77 76 72 66
166 168 180 183 176 187 200 199 182 179 184 195 199 196 204 198 186 198 196 198 201 167 149 171 181 210 200 136 88 193 183 180 177 172 170 169 165 157 150 145 142 146 150 148 145 142 140 141 138 134 134 136 134 131 127 122 119 116 113 111 105 100 96 90 86 83 81 79 77 76 77 76 77 78 77 76 75 75 76 78 79 79 79 78 74 67
177 163 168 179 176 177 193 204 186 179 187 193 200 204 209 212 194 180 200 188 177 166 161 175 188 209 159 127 62 223 183 172 170 167 165 164 163 159 153 151 151 151 154 155 150 143 144 145 141 137 138 139 136 133 131 127 125 122 118 113 107 101 97 91 86 85 84 83 83 81 81 80 80 82 82 82 80 80 79 79 81 80 79 78 74 68
180 150 154 167 177 181 190 198 188 189 187 180 200 207 200 215 201 155 104 75 119 176 178 183 193 152 150 158 152 190 185 169 167 170 168 168 168 168 165 161 159 157 157 159 152 146 148 147 142 139 139 140 139 136 135 132 127 123 119 114 109 104 99 93 90 89 89 89 89 87 86 85 86 86 86 86 84 83 83 82 83 82 78 75 72 68
173 138 154 169 174 183 191 188 192 208 205 181 195 188 152 179 217 185 176 139 169 207 183 184 201 186 186 179 150 177 182 171 172 174 173 175 174 174 172 165 161 158 157 158 153 150 151 149 143 141 143 143 141 137 134 131 126 122 118 113 110 106 102 98 96 95 94 95 93 90 89 88 89 89 88 88 87 87 87 84 82 81 77 73 71 69
190 139 155 178 174 174 186 187 195 212 217 225 207 180 167 189 196 198 202 179 194 210 186 192 204 199 202 184 157 176 182 177 178 176 178 181 179 176 170 164 162 158 157 156 155 154 152 150 146 143 144 142 137 133 132 130 126 121 116 111 108 105 102 99 99 99 97 97 96 94 93 90 90 90 90 90 90 89 87 83 81 79 76 73 69 67
204 160 153 181 175 165 179 195 200 193 194 237 226 190 193 213 204 202 203 190 199 203 189 189 195 205 213 181 165 179 183 181 181 182 186 184 181 178 168 163 163 160 159 157 156 156 152 149 148 146 146 142 138 136 134 131 126 120 113 108 107 105 101 99 100 99 97 96 98 98 96 94 92 91 91 91 90 89 85 81 79 76 73 71 67 64
193 194 155 171 171 169 183 199 203 189 181 205 213 191 193 206 212 206 200 202 214 209 191 182 193 213 203 169 174 185 186 185 185 187 189 185 181 177 168 164 164 160 161 158 156 156 152 150 149 146 145 143 141 140 137 132 124 115 110 108 109 107 103 101 102 101 101 99 99 99 98 97 94 92 92 91 88 86 83 78 77 74 72 71 67 63
196 197 160 163 172 186 192 193 203 202 190 194 202 198 195 193 194 199 196 199 218 225 206 195 206 200 166 167 187 191 189 188 188 188 186 182 180 175 168 166 163 160 162 158 155 155 153 152 150 147 146 145 143 142 137 129 120 114 113 113 112 108 106 107 108 107 107 105 104 101 100 98 95 94 92 90 86 83 81 78 75 74 73 70 66 63
210 200 166 166 181 192 177 183 206 214 203 200 207 207 201 197 200 203 196 188 202 221 215 216 217 160 112 187 200 193 187 183 186 188 182 177 176 171 167 166 161 159 159 154 153 155 153 153 151 149 149 146 142 141 134 125 120 118 117 113 110 109 109 110 113 114 112 111 108 105 102 98 95 94 91 88 85 82 80 78 74 73 72 69 65 61
193 202 174 161 175 186 163 176 210 223 216 209 208 210 209 203 202 213 216 189 193 203 192 204 215 153 108 225 213 193 177 171 180 183 172 166 167 166 165 161 157 158 157 153 153 154 152 151 151 152 150 145 142 141 133 126 125 122 116 112 112 112 112 112 114 117 116 113 111 106 102 99 96 93 90 87 84 82 80 78 75 71 69 67 65 60
182 197 184 166 170 182 184 190 203 210 215 217 210 208 213 206 199 210 220 191 195 204 199 210 216 155 112 167 193 191 177 172 175 168 161 164 162 161 161 157 155 156 155 154 154 153 154 153 154 154 149 144 145 143 135 130 129 123 117 117 118 116 114 114 115 118 118 114 110 105 101 98 96 92 89 87 85 82 80 78 75 72 68 67 64 61
187 200 193 187 181 185 196 198 197 196 200 214 214 208 210 209 201 202 204 197 206 204 200 214 216 139 105 167 183 183 181 178 174 162 160 162 156 155 157 153 153 155 155 158 157 156 157 157 157 155 149 147 148 144 138 135 129 122 120 121 123 120 116 114 115 116 116 113 108 104 101 98 95 92 89 87 85 82 80 78 76 73 69 66 64 60
191 205 205 216 210 199 206 196 179 186 190 200 208 208 210 210 206 206 206 209 214 207 207 217 209 157 144 173 179 179 182 180 174 169 168 163 157 156 155 151 152 156 160 161 159 157 159 158 157 154 150 150 150 144 140 137 128 123 124 126 125 121 116 115 116 115 113 111 107 103 101 98 95 93 89 87 86 84 82 79 76 74 70 66 62 58
194 196 204 227 242 92 127 127 145 188 198 198 202 205 208 209 210 213 215 217 213 209 211 202 193 184 173 176 180 181 183 183 177 176 174 167 161 157 153 153 156 160 164 163 161 160 160 157 155 154 153 152 147 141 136 131 126 125 128 129 127 122 118 117 118 116 114 112 108 104 102 100 96 93 91 90 89 86 83 80 77 73 69 64 60 55
211 193 192 215 214 84 58 78 119 196 208 207 208 208 207 209 213 214 216 220 215 215 212 176 183 204 195 180 185 185 185 185 180 177 171 162 159 156 153 157 161 164 165 163 160 159 158 156 155 155 156 151 143 136 131 128 127 129 131 132 130 126 123 122 121 119 116 113 110 107 105 102 98 96 94 93 91 88 85 82 77 72 67 62 59 56
224 190 174 205 214 185 124 86 114 202 212 217 220 218 213 212 213 213 215 219 215 219 223 181 187 208 199 182 190 186 178 177 174 174 170 164 164 162 160 163 164 165 165 164 162 161 159 158 156 154 154 149 140 133 131 130 132 135 136 135 133 131 128 127 125 122 119 116 114 113 110 106 103 101 98 95 93 90 87 82 77 72 68 63 60 57
216 173 161 201 220 201 179 170 217 227 231 230 227 224 222 218 215 212 214 217 212 216 223 208 201 208 183 168 180 169 160 169 177 180 176 171 169 168 169 171 167 165 167 167 165 164 163 159 154 152 150 145 138 133 133 135 138 138 138 136 136 135 132 131 129 126 124 122 120 119 115 111 108 104 101 98 96 92 88 82 78 73 69 65 61 58
203 191 170 200 223 209 189 197 221 233 249 245 236 227 221 221 220 217 214 209 206 212 214 212 218 213 157 146 161 161 167 177 183 184 180 176 174 172 173 174 169 167 168 166 164 164 165 161 154 152 148 142 138 136 138 141 141 139 139 138 138 138 136 134 133 131 128 126 124 121 118 115 111 106 104 101 97 93 89 84 79 75 71 67 64 60
196 203 191 197 216 209 180 184 216 232 242 241 237 233 224 217 213 209 203 196 204 215 211 210 226 212 156 153 161 166 176 185 188 189 185 180 178 175 173 172 170 169 168 165 165 168 167 161 154 151 147 141 139 141 143 144 141 139 139 139 139 140 139 138 136 133 130 127 125 124 121 118 114 109 106 102 98 95 91 86 81 75 72 69 66 62
193 207 206 192 211 206 172 161 210 231 234 225 111 7 286 216 200 199 200 197 204 215 217 223 226 177 153 163 172 174 183 190 191 189 186 182 179 176 175 173 171 171 170 168 169 171 166 156 149 145 142 139 139 141 144 143 139 137 138 139 140 141 140 138 136 133 133 132 131 130 126 122 119 115 111 105 100 96 92 87 81 76 72 70 67 63
188 205 207 193 214 208 168 173 217 229 227 95 78 60 31 354 211 208 208 203 201 204 205 215 208 171 165 177 181 179 183 186 184 186 188 186 181 178 176 175 174 174 173 173 172 168 160 150 145 142 139 138 140 143 146 144 140 139 139 140 141 141 140 139 137 138 141 140 137 134 130 127 125 120 113 107 102 98 93 87 82 75 71 69 67 64
187 196 201 203 215 203 179 200 220 230 115 114 106 126 135 115 186 191 204 208 202 202 205 208 208 189 177 173 167 165 167 167 174 187 189 185 182 180 178 178 179 178 175 171 167 161 156 151 147 144 142 142 145 149 150 148 144 142 141 142 143 144 144 144 144 145 145 142 138 135 133 131 128 122 116 111 106 100 93 88 83 77 73 70 68 66
198 195 191 199 212 216 214 211 211 251 185 181 171 176 179 171 171 186 220 216 199 199 203 200 192 176 166 153 146 148 149 157 175 191 191 188 184 181 179 177 175 173 168 164 161 157 154 150 146 144 144 146 151 154 153 150 147 145 144 146 147 148 149 148 147 146 145 142 139 136 136 134 130 124 120 115 109 103 95 90 84 79 74 69 67 66
214 209 200 197 200 214 232 223 213 228 233 211 157 159 172 177 183 203 246 221 188 188 193 190 179 167 161 152 149 147 147 162 187 197 193 191 187 185 183 176 170 166 162 158 155 151 148 146 145 145 146 148 154 158 155 152 151 149 149 151 152 151 151 149 147 146 144 141 139 137 137 135 131 127 123 118 113 106 99 93 86 80 75 70 67 66
213 218 216 212 200 200 225 231 222 229 232 187 139 146 166 186 197 210 234 217 177 179 184 184 178 171 165 158 154 153 156 180 207 204 189 187 187 185 181 173 165 161 158 154 150 146 144 145 145 145 148 151 155 158 156 154 153 152 153 154 154 153 152 149 147 146 143 140 139 138 137 134 131 128 125 120 115 109 103 95 86 81 76 71 69 66
200 206 214 221 214 203 216 231 232 230 196 120 126 135 151 167 189 216 220 202 157 178 185 182 177 173 168 160 160 167 176 197 231 189 173 179 183 180 176 170 160 155 155 153 149 144 143 145 145 147 151 154 156 157 156 155 156 155 154 155 155 153 151 148 146 144 141 139 138 137 135 133 131 129 126 122 118 112 105 96 88 85 78 71 68 64
189 194 206 217 219 208 212 230 239 221 114 99 126 134 136 149 205 228 217 116 123 181 188 187 181 172 166 163 168 183 188 213 32 140 157 170 176 174 172 163 154 152 152 148 143 141 143 147 151 153 155 156 156 157 156 157 157 156 155 156 155 152 149 147 144 142 140 139 138 137 135 134 133 131 128 125 120 114 107 98 91 87 79 73 68 62
186 191 201 213 221 217 213 228 239 229 127 111 128 130 145 182 217 233 218 55 152 167 172 190 188 174 170 171 177 185 162 93 111 142 155 168 171 170 166 156 150 151 149 142 141 144 147 151 154 154 155 157 159 158 158 158 157 156 156 156 153 150 147 146 144 142 141 140 139 138 136 136 136 135 132 129 125 118 112 104 94 85 78 75 69 61
185 194 203 206 213 223 218 218 233 243 164 147 143 140 197 229 283 40 135 144 175 157 160 181 185 175 178 178 178 175 142 126 142 150 157 164 164 163 164 157 151 150 145 142 144 148 149 152 155 155 156 159 161 160 160 159 158 157 157 155 151 149 147 146 146 145 143 141 140 139 139 140 140 139 137 136 132 124 118 111 100 87 77 69 65 61
183 209 226 209 198 219 225 214 229 334 146 159 153 136 199 59 16 347 301 128 158 159 159 171 174 174 180 180 176 173 158 154 159 157 158 163 162 163 164 158 150 145 142 143 148 151 152 154 156 156 157 160 162 163 162 160 158 158 157 153 150 149 148 148 148 147 145 144 143 143 144 145 145 144 141 139 137 130 122 117 108 93 80 65 57 55
86 13 294 246 201 238 260 245 27 27 144 160 112 28 28 38 13 337 322 50 148 165 162 162 164 169 178 179 175 177 176 172 166 159 159 165 167 165 160 153 148 145 144 148 152 154 155 156 155 156 159 162 164 164 163 162 160 160 158 154 152 152 151 151 151 150 149 149 150 150 151 150 149 148 146 146 146 140 128 123 118 96 81 70 56 50
45 48 299 279 285 285 274 141 64 10 174 172 133 48 26 1 5 343 321 357 139 164 159 152 157 165 171 171 173 181 183 175 166 162 164 168 165 158 153 149 148 148 151 154 155 156 157 157 156 157 160 164 165 165 164 164 163 161 159 156 155 156 155 154 153 153 154 154 155 156 156 155 155 154 154 155 152 142 133 125 117 99 78 70 58 48
139 168 236 261 262 241 222 141 107 54 193 190 187 149 97 273 326 332 317 346 106 147 144 135 151 161 163 167 173 177 178 174 167 162 164 165 161 156 154 153 151 153 156 158 157 157 158 158 158 160 162 164 166 166 165 165 165 164 160 158 159 159 158 158 158 158 159 158 158 161 161 160 161 160 161 164 159 146 138 132 119 103 77 56 47 43
139 187 236 244 230 235 250 91 104 178 218 207 207 194 161 169 174 269 300 327 116 146 138 135 151 158 162 172 175 172 173 176 170 161 160 162 160 158 157 155 154 157 159 159 159 159 160 161 162 163 163 165 167 167 167 167 168 166 162 162 163 163 162 162 163 163 164 163 162 165 167 165 168 170 166 164 165 158 145 139 127 100 79 52 31 26
130 200 229 237 236 243 244 172 166 200 203 200 208 208 192 176 177 188 207 206 168 154 148 153 164 167 170 175 174 168 170 173 169 163 161 161 161 160 156 154 157 159 160 159 160 161 162 164 166 166 165 166 168 168 169 169 169 167 165 165 166 166 165 166 168 169 170 168 168 170 172 170 173 179 172 162 165 165 146 134 123 96 86 71 49 44
196 228 212 222 243 244 232 95 148 244 215 159 187 205 203 201 207 193 185 185 177 166 162 164 170 177 179 177 174 173 171 169 167 164 163 163 163 159 155 156 159 161 160 159 160 162 165 167 168 167 165 166 168 170 170 171 170 168 168 168 168 169 168 168 172 174 174 174 175 175 177 176 175 178 176 168 168 165 152 144 139 115 100 97 96 85
237 272 250 252 262 274 39 27 359 293 315 74 102 191 192 193 215 213 196 187 178 173 172 170 170 176 180 180 181 179 173 168 167 165 164 165 162 158 157 160 162 160 159 159 161 165 168 168 168 168 166 166 169 171 171 171 170 169 170 170 170 172 171 171 175 177 176 179 180 177 180 182 177 175 178 175 173 171 164 158 151 143 142 135 126 125